Tracking 20710 objects as of 30-May-2020
HD Live streaming from Space Station
objects crossing your sky now

FLOCK 3K 5

Track FLOCK 3K 5 now!
10-day predictions
FLOCK 3K 5 is classified as:


NORAD ID: 43899
Int'l Code: 2018-111Z
Perigee: 481.8 km
Apogee: 510.2 km
Inclination: 97.3 °
Period: 94.4 minutes
Semi major axis: 6867 km
RCS: Unknown
Launch date: December 27, 2018
Source: United States (US)
Launch site: VOSTOCHNY COSMODROME (VOSTO)
aabbcc
Your satellite tracking list
Your tracking list is empty




NASA's NSSDC Master Catalog

Two Line Element Set (TLE):
1 43899U 18111Z   20150.89810461 +.00000630 +00000-0 +27428-4 0  9996
2 43899 097.2677 051.4858 0020654 206.0150 154.0053 15.25634206079205
Source of the keplerian elements: AFSPC